Location: Tauranga
(37.6860°S, 176.1670°E)
Time: 13:27:28
(UTC+13:00)

BREEZE-M DEB (TANK) - Pass Details

Date: 24 January 2019
Orbit: 278 x 14014 km, 46.1° (Epoch: 16 February)

Event Time Altitude Azimuth Distance (km) Brightness Sun altitude
Rises 22:19:16 0° 282° (WNW) 4,300 7.4 -17.9°
Reaches altitude 10° 22:23:34 10° 272° (W) 2,235 6.0 -18.6°
Maximum altitude 22:27:20 30° 208° (SSW) 758 3.7 -19.1°
Enters shadow 22:29:09 13° 144° (SE) 1,104 4.0 -19.3°
